Lawton, OK

5:36 AM CST on February 08, 2016 (GMT -0600)
Post Army Air Field

Weather History for KFSI - January, 2013

Change the Weather History Date:

Friday, January 18, 2013

  Actual Average Record
Temperature  
Mean Temperature 44 °F -  
Max Temperature 60 °F 50 °F 75 °F (1964)
Min Temperature 28 °F 27 °F 4 °F (1978)
Degree Days  
Heating Degree Days 21    
Moisture  
Dew Point 29 °F    
Average Humidity 61    
Maximum Humidity 86    
Minimum Humidity 32    
Precipitation  
Precipitation 0.00 in - - ()
Sea Level Pressure  
Sea Level Pressure 30.35 in    
Wind  
Wind Speed 5 mph (South)    
Max Wind Speed 16 mph    
Max Gust Speed 21 mph    
Visibility 10 miles    
Events      
Averages and records for this station are not official NWS values.
T = Trace of Precipitation, MM = Missing Value Source: NWS Daily Summary

Daily Weather History Graph

Daily Weather History Graph

Search for Another Location

Airport or City:

Trip Planner

Search our weather history database for the weather conditions in past years. The results will help you decide how hot, cold, wet, or windy it might be!

Date:

Astronomy

Jan. 18, 2013 Rise Set
Actual Time 7:39 AM CST 5:49 PM CST
Civil Twilight 7:12 AM CST 6:16 PM CST
Nautical Twilight 6:41 AM CST 6:47 PM CST
Astronomical Twilight 6:11 AM CST 7:17 PM CST
Moon 11:39 AM CST (1/18) 12:21 AM CST (1/18)
Length of Visible Light 11h 04m
Length of Day
10h 09m
Waxing Crescent, 47% of the Moon is Illuminated
Jan 18
Waxing Crescent
Jan 18
First Quarter
Jan 26
Full
Feb 3
Last Quarter
Feb 10
New

Hourly Weather History & Observations

Time (CST) Temp. Windchill Dew Point Humidity Pressure Visibility Wind Dir Wind Speed Gust Speed Precip Events Conditions
12:55 AM 34.0 °F - 27.5 °F 77% 30.49 in 10.0 mi Calm Calm - N/A   Clear
1:55 AM 32.2 °F - 26.6 °F 80% 30.49 in 10.0 mi Calm Calm - N/A   Clear
2:55 AM 31.5 °F - 26.6 °F 82% 30.48 in 10.0 mi Calm Calm - N/A   Clear
3:55 AM 30.2 °F - 26.4 °F 86% 30.47 in 10.0 mi Calm Calm - N/A   Clear
4:55 AM 29.3 °F - 25.7 °F 86% 30.45 in 10.0 mi Calm Calm - N/A   Clear
5:55 AM 28.9 °F - 25.3 °F 86% 30.43 in 10.0 mi Calm Calm - N/A   Clear
6:55 AM 29.1 °F - 25.2 °F 85% 30.43 in 10.0 mi Calm Calm - N/A   Clear
7:55 AM 29.8 °F 23.9 °F 25.9 °F 85% 30.43 in 10.0 mi South 5.8 mph - N/A   Clear
8:55 AM 35.2 °F 30.3 °F 29.8 °F 81% 30.44 in 10.0 mi South 5.8 mph - N/A   Clear
9:55 AM 40.3 °F 34.9 °F 30.4 °F 68% 30.46 in 10.0 mi South 8.1 mph - N/A   Clear
10:55 AM 46.9 °F - 31.5 °F 55% 30.44 in 10.0 mi SSW 13.8 mph - N/A   Clear
11:55 AM 51.8 °F - 31.8 °F 47% 30.41 in 10.0 mi South 16.1 mph - N/A   Clear
12:55 PM 55.2 °F - 32.0 °F 41% 30.35 in 10.0 mi SSW 13.8 mph - N/A   Clear
1:55 PM 57.9 °F - 32.5 °F 38% 30.31 in 10.0 mi South 13.8 mph - N/A   Clear
2:55 PM 60.1 °F - 30.4 °F 33% 30.28 in 10.0 mi SSW 15.0 mph 20.7 mph N/A   Clear
3:55 PM 60.4 °F - 30.2 °F 32% 30.25 in 10.0 mi South 12.7 mph - N/A   Clear
4:55 PM 59.5 °F - 30.6 °F 33% 30.23 in 10.0 mi South 15.0 mph 20.7 mph N/A   Clear
5:55 PM 54.9 °F - 31.6 °F 41% 30.23 in 10.0 mi South 8.1 mph - N/A   Clear
6:55 PM 50.5 °F - 31.6 °F 48% 30.24 in 10.0 mi South 9.2 mph - N/A   Clear
7:55 PM 46.4 °F 42.9 °F 30.7 °F 54% 30.23 in 10.0 mi SSE 6.9 mph - N/A   Clear
8:55 PM 44.6 °F 39.7 °F 30.9 °F 59% 30.22 in 10.0 mi South 9.2 mph - N/A   Clear
9:55 PM 46.0 °F 41.0 °F 30.0 °F 54% 30.20 in 10.0 mi South 10.4 mph - N/A   Clear
10:55 PM 44.8 °F 39.0 °F 30.0 °F 56% 30.19 in 10.0 mi South 11.5 mph - N/A   Clear
11:55 PM 41.7 °F 38.8 °F 29.5 °F 62% 30.18 in 10.0 mi SSE 4.6 mph - N/A   Clear